Time,TemperatureF,DewpointF,PressureIn,WindDirection,WindDirectionDegrees,WindSpeedMPH,WindSpeedGustMPH,Humidity,HourlyPrecipIn,Conditions,Clouds,dailyrainin,SoftwareType,DateUTC
2013-03-19 00:03:00,14.9,1.6,29.71,West,270,25.0,29.0,55,0.00,,,0.06,meteohub,2013-03-19 05:03:00,
2013-03-19 00:08:00,14.7,0.7,29.70,West,270,17.0,29.0,53,0.00,,,0.00,meteohub,2013-03-19 05:08:00,
2013-03-19 00:13:00,14.7,0.7,29.71,West,270,15.0,29.0,53,0.00,,,0.00,meteohub,2013-03-19 05:13:00,
2013-03-19 00:18:00,14.7,1.9,29.71,West,270,13.0,25.0,56,0.00,,,0.00,meteohub,2013-03-19 05:18:00,
2013-03-19 00:24:00,14.5,1.8,29.71,NW,315,18.0,25.0,56,0.00,,,0.00,meteohub,2013-03-19 05:24:00,
2013-03-19 00:29:00,14.4,1.9,29.71,West,270,16.0,21.0,57,0.00,,,0.00,meteohub,2013-03-19 05:29:00,
2013-03-19 00:34:00,14.4,1.2,29.70,NW,315,23.0,23.0,55,0.00,,,0.00,meteohub,2013-03-19 05:34:00,
2013-03-19 00:39:00,14.2,1.0,29.71,West,270,23.0,23.0,55,0.00,,,0.00,meteohub,2013-03-19 05:39:00,
2013-03-19 00:44:00,14.2,1.0,29.71,NW,315,23.0,23.0,55,0.00,,,0.00,meteohub,2013-03-19 05:44:00,
2013-03-19 00:49:00,14.2,1.0,29.71,NW,315,15.0,23.0,55,0.00,,,0.00,meteohub,2013-03-19 05:49:00,
2013-03-19 00:55:00,14.0,1.6,29.71,West,270,15.0,23.0,57,0.00,,,0.00,meteohub,2013-03-19 05:55:00,
2013-03-19 01:00:00,14.0,1.6,29.71,West,270,15.0,23.0,57,0.00,,,0.00,meteohub,2013-03-19 06:00:00,
2013-03-19 01:05:00,13.6,1.9,29.70,West,270,23.0,23.0,59,0.00,,,0.00,meteohub,2013-03-19 06:05:00,
2013-03-19 01:10:00,13.6,1.6,29.70,NW,315,16.0,23.0,58,0.00,,,0.00,meteohub,2013-03-19 06:10:00,
2013-03-19 01:16:00,13.6,1.6,29.70,West,270,18.0,23.0,58,0.00,,,0.00,meteohub,2013-03-19 06:16:00,
2013-03-19 01:21:00,13.6,1.6,29.70,NW,315,17.0,23.0,58,0.00,,,0.00,meteohub,2013-03-19 06:21:00,
2013-03-19 01:27:00,13.5,1.4,29.70,NW,315,21.0,23.0,58,0.00,,,0.00,meteohub,2013-03-19 06:27:00,
2013-03-19 01:32:00,13.5,1.0,29.70,East,90,22.0,23.0,57,0.00,,,0.00,meteohub,2013-03-19 06:32:00,
2013-03-19 01:37:00,13.3,0.9,29.71,NW,315,19.0,23.0,57,0.00,,,0.00,meteohub,2013-03-19 06:37:00,
2013-03-19 01:42:00,13.3,0.9,29.71,NW,315,15.0,23.0,57,0.00,,,0.00,meteohub,2013-03-19 06:42:00,
2013-03-19 01:48:00,13.3,0.9,29.71,West,270,16.0,22.0,57,0.00,,,0.00,meteohub,2013-03-19 06:48:00,
2013-03-19 01:53:00,13.1,1.4,29.71,West,270,16.0,21.0,59,0.00,,,0.00,meteohub,2013-03-19 06:53:00,
2013-03-19 01:58:00,13.1,1.8,29.71,West,270,15.0,21.0,60,0.00,,,0.00,meteohub,2013-03-19 06:58:00,
2013-03-19 02:03:00,13.1,2.1,29.71,NW,315,17.0,21.0,61,0.00,,,0.00,meteohub,2013-03-19 07:03:00,
2013-03-19 02:08:00,12.9,1.9,29.71,West,270,20.0,21.0,61,0.00,,,0.00,meteohub,2013-03-19 07:08:00,
2013-03-19 02:13:00,12.7,1.8,29.71,West,270,27.0,27.0,61,0.00,,,0.00,meteohub,2013-03-19 07:13:00,
2013-03-19 02:19:00,12.6,1.0,29.71,West,270,17.0,27.0,59,0.00,,,0.00,meteohub,2013-03-19 07:19:00,
2013-03-19 02:24:00,12.6,1.0,29.71,NW,315,23.0,27.0,59,0.00,,,0.00,meteohub,2013-03-19 07:24:00,
2013-03-19 02:29:00,12.4,0.0,29.71,NW,315,21.0,27.0,57,0.00,,,0.00,meteohub,2013-03-19 07:29:00,
2013-03-19 02:34:00,12.4,0.0,29.71,NW,315,21.0,27.0,57,0.00,,,0.00,meteohub,2013-03-19 07:34:00,
2013-03-19 02:39:00,12.2,-0.6,29.72,West,270,17.0,23.0,56,0.00,,,0.00,meteohub,2013-03-19 07:39:00,
2013-03-19 02:44:00,12.2,-0.6,29.71,NW,315,17.0,23.0,56,0.00,,,0.00,meteohub,2013-03-19 07:44:00,
2013-03-19 02:49:00,12.2,0.0,29.71,NW,315,23.0,23.0,57,0.00,,,0.00,meteohub,2013-03-19 07:49:00,
2013-03-19 02:54:00,11.8,-0.4,29.71,NW,315,23.0,23.0,57,0.00,,,0.00,meteohub,2013-03-19 07:54:00,
2013-03-19 02:59:00,11.7,-0.6,29.71,NW,315,22.0,23.0,57,0.00,,,0.00,meteohub,2013-03-19 07:59:00,
2013-03-19 03:05:00,11.7,-0.9,29.71,West,270,17.0,26.0,56,0.00,,,0.00,meteohub,2013-03-19 08:05:00,
2013-03-19 03:10:00,11.7,-0.9,29.71,NW,315,22.0,26.0,56,0.00,,,0.00,meteohub,2013-03-19 08:10:00,
2013-03-19 03:15:00,11.7,-0.9,29.71,NW,315,21.0,26.0,56,0.00,,,0.00,meteohub,2013-03-19 08:15:00,
2013-03-19 03:20:00,11.7,-1.3,29.72,NW,315,17.0,29.0,55,0.00,,,0.00,meteohub,2013-03-19 08:20:00,
2013-03-19 03:25:00,11.7,-1.3,29.71,NW,315,20.0,29.0,55,0.00,,,0.00,meteohub,2013-03-19 08:25:00,
2013-03-19 03:31:00,11.5,-1.1,29.72,West,270,15.0,26.0,56,0.00,,,0.00,meteohub,2013-03-19 08:31:00,
2013-03-19 03:36:00,11.5,-1.1,29.72,WNW,293,18.0,26.0,56,0.00,,,0.00,meteohub,2013-03-19 08:36:00,
2013-03-19 03:42:00,11.5,-1.1,29.72,NW,315,17.0,21.0,56,0.00,,,0.00,meteohub,2013-03-19 08:42:00,
2013-03-19 03:47:00,11.3,-1.3,29.72,NW,315,21.0,21.0,56,0.00,,,0.00,meteohub,2013-03-19 08:47:00,
2013-03-19 03:52:00,11.3,-1.7,29.72,NW,315,19.0,21.0,55,0.00,,,0.00,meteohub,2013-03-19 08:52:00,
2013-03-19 03:57:00,11.1,-1.8,29.72,West,270,20.0,23.0,55,0.00,,,0.00,meteohub,2013-03-19 08:57:00,
2013-03-19 04:02:00,10.9,-1.7,29.72,West,270,17.0,23.0,56,0.00,,,0.00,meteohub,2013-03-19 09:02:00,
2013-03-19 04:08:00,10.9,-1.7,29.72,NW,315,17.0,23.0,56,0.00,,,0.00,meteohub,2013-03-19 09:08:00,
2013-03-19 04:13:00,10.6,-2.4,29.72,West,270,19.0,21.0,55,0.00,,,0.00,meteohub,2013-03-19 09:13:00,
2013-03-19 04:18:00,10.6,-2.4,29.73,West,270,23.0,24.0,55,0.00,,,0.00,meteohub,2013-03-19 09:18:00,
2013-03-19 04:23:00,10.6,-2.4,29.72,West,270,23.0,24.0,55,0.00,,,0.00,meteohub,2013-03-19 09:23:00,
2013-03-19 04:29:00,10.2,-2.7,29.73,West,270,15.0,24.0,55,0.00,,,0.00,meteohub,2013-03-19 09:29:00,
2013-03-19 04:34:00,10.0,-2.9,29.73,West,270,17.0,25.0,55,0.00,,,0.00,meteohub,2013-03-19 09:34:00,
2013-03-19 04:40:00,9.9,-3.1,29.73,SW,225,20.0,25.0,55,0.00,,,0.00,meteohub,2013-03-19 09:40:00,
2013-03-19 04:45:00,9.9,-2.7,29.74,West,270,17.0,20.0,56,0.00,,,0.00,meteohub,2013-03-19 09:45:00,
2013-03-19 04:50:00,9.7,-2.9,29.73,West,270,20.0,20.0,56,0.00,,,0.00,meteohub,2013-03-19 09:50:00,
2013-03-19 04:55:00,9.5,-3.1,29.74,West,270,16.0,20.0,56,0.00,,,0.00,meteohub,2013-03-19 09:55:00,
2013-03-19 05:00:00,9.5,-3.1,29.74,NW,315,15.0,20.0,56,0.00,,,0.00,meteohub,2013-03-19 10:00:00,
2013-03-19 05:06:00,9.5,-3.1,29.74,NW,315,15.0,20.0,56,0.00,,,0.00,meteohub,2013-03-19 10:06:00,
2013-03-19 05:11:00,9.3,-3.3,29.75,NW,315,27.0,27.0,56,0.00,,,0.00,meteohub,2013-03-19 10:11:00,
2013-03-19 05:17:00,9.3,-3.3,29.75,NW,315,18.0,27.0,56,0.00,,,0.00,meteohub,2013-03-19 10:17:00,
2013-03-19 05:22:00,9.3,-3.3,29.75,NW,315,18.0,27.0,56,0.00,,,0.00,meteohub,2013-03-19 10:22:00,
2013-03-19 05:27:00,9.3,-3.3,29.75,NW,315,18.0,27.0,56,0.00,,,0.00,meteohub,2013-03-19 10:27:00,
2013-03-19 05:32:00,9.3,-2.9,29.75,NW,315,19.0,19.0,57,0.00,,,0.00,meteohub,2013-03-19 10:32:00,
2013-03-19 05:37:00,9.3,-2.9,29.76,NW,315,19.0,19.0,57,0.00,,,0.00,meteohub,2013-03-19 10:37:00,
2013-03-19 05:42:00,9.3,-2.9,29.76,NW,315,19.0,19.0,57,0.00,,,0.00,meteohub,2013-03-19 10:42:00,
2013-03-19 05:50:00,9.1,-2.9,29.76,NW,315,19.0,19.0,57,0.00,,,0.00,meteohub,2013-03-19 10:50:00,
2013-03-19 05:55:00,9.1,-2.9,29.76,NW,315,19.0,19.0,57,0.00,,,0.00,meteohub,2013-03-19 10:55:00,
2013-03-19 06:00:00,9.1,-2.9,29.76,NW,315,19.0,19.0,57,0.00,,,0.00,meteohub,2013-03-19 11:00:00,
2013-03-19 06:14:00,9.0,-3.1,29.77,NW,315,12.0,19.0,57,0.00,,,0.00,meteohub,2013-03-19 11:14:00,
2013-03-19 06:19:00,9.0,-3.1,29.77,NW,315,12.0,-999.0,57,0.00,,,0.00,meteohub,2013-03-19 11:19:00,
2013-03-19 06:24:00,9.0,-3.1,29.78,NW,315,12.0,12.0,57,0.00,,,0.00,meteohub,2013-03-19 11:24:00,
2013-03-19 06:30:00,9.0,-3.1,29.78,NW,315,17.0,17.0,57,0.00,,,0.00,meteohub,2013-03-19 11:30:00,
2013-03-19 06:35:00,8.8,-3.3,29.78,NW,315,15.0,18.0,57,0.00,,,0.00,meteohub,2013-03-19 11:35:00,
2013-03-19 06:40:00,8.8,-3.3,29.78,West,270,16.0,18.0,57,0.00,,,0.00,meteohub,2013-03-19 11:40:00,
2013-03-19 06:45:00,8.8,-3.3,29.78,West,270,16.0,18.0,57,0.00,,,0.00,meteohub,2013-03-19 11:45:00,
2013-03-19 06:50:00,8.8,-3.3,29.78,West,270,16.0,19.0,57,0.00,,,0.00,meteohub,2013-03-19 11:50:00,
2013-03-19 06:55:00,8.6,-3.5,29.78,NW,315,17.0,19.0,57,0.00,,,0.00,meteohub,2013-03-19 11:55:00,
2013-03-19 07:01:00,8.6,-3.1,29.78,NW,315,20.0,20.0,58,0.00,,,0.00,meteohub,2013-03-19 12:01:00,
2013-03-19 07:06:00,8.6,-3.5,29.79,West,270,17.0,20.0,57,0.00,,,0.00,meteohub,2013-03-19 12:06:00,
2013-03-19 07:11:00,8.6,-3.5,29.79,NW,315,18.0,21.0,57,0.00,,,0.00,meteohub,2013-03-19 12:11:00,
2013-03-19 07:16:00,8.4,-3.6,29.79,West,270,17.0,21.0,57,0.00,,,0.00,meteohub,2013-03-19 12:16:00,
2013-03-19 07:21:00,8.4,-3.6,29.79,West,270,17.0,21.0,57,0.00,,,0.00,meteohub,2013-03-19 12:21:00,
2013-03-19 07:27:00,8.4,-3.6,29.80,NW,315,17.0,18.0,57,0.00,,,0.00,meteohub,2013-03-19 12:27:00,
2013-03-19 07:32:00,8.4,-3.6,29.79,West,270,13.0,20.0,57,0.00,,,0.00,meteohub,2013-03-19 12:32:00,
2013-03-19 07:37:00,8.6,-3.5,29.79,SW,225,20.0,23.0,57,0.00,,,0.00,meteohub,2013-03-19 12:37:00,
2013-03-19 07:42:00,8.6,-3.5,29.80,WNW,293,17.0,23.0,57,0.00,,,0.00,meteohub,2013-03-19 12:42:00,
2013-03-19 07:47:00,9.0,-3.5,29.80,West,270,17.0,23.0,56,0.00,,,0.00,meteohub,2013-03-19 12:47:00,
2013-03-19 07:52:00,9.1,-3.5,29.80,West,270,25.0,25.0,56,0.00,,,0.00,meteohub,2013-03-19 12:52:00,
2013-03-19 07:57:00,9.3,-3.3,29.80,West,270,23.0,25.0,56,0.00,,,0.00,meteohub,2013-03-19 12:57:00,
2013-03-19 08:02:00,9.3,-3.3,29.81,West,270,21.0,25.0,56,0.00,,,0.00,meteohub,2013-03-19 13:02:00,
2013-03-19 08:07:00,9.5,-3.1,29.81,West,270,16.0,25.0,56,0.00,,,0.00,meteohub,2013-03-19 13:07:00,
2013-03-19 08:12:00,9.7,-3.3,29.80,West,270,20.0,25.0,55,0.00,,,0.00,meteohub,2013-03-19 13:12:00,
2013-03-19 08:17:00,9.9,-3.1,29.81,West,270,20.0,23.0,55,0.00,,,0.00,meteohub,2013-03-19 13:17:00,
2013-03-19 08:23:00,10.0,-2.9,29.81,WNW,293,23.0,23.0,55,0.00,,,0.00,meteohub,2013-03-19 13:23:00,
2013-03-19 08:28:00,10.0,-3.3,29.81,West,270,21.0,23.0,54,0.00,,,0.00,meteohub,2013-03-19 13:28:00,
2013-03-19 08:33:00,10.6,-2.7,29.81,NW,315,14.0,23.0,54,0.00,,,0.00,meteohub,2013-03-19 13:33:00,
2013-03-19 08:38:00,10.6,-3.1,29.82,West,270,20.0,23.0,53,0.00,,,0.00,meteohub,2013-03-19 13:38:00,
2013-03-19 08:43:00,10.9,-2.9,29.82,West,270,19.0,21.0,53,0.00,,,0.00,meteohub,2013-03-19 13:43:00,
2013-03-19 08:48:00,10.9,-2.9,29.82,NW,315,22.0,22.0,53,0.00,,,0.00,meteohub,2013-03-19 13:48:00,
2013-03-19 08:53:00,11.1,-2.7,29.82,NW,315,18.0,20.0,53,0.00,,,0.00,meteohub,2013-03-19 13:53:00,
2013-03-19 08:59:00,11.5,-2.7,29.83,West,270,17.0,22.0,52,0.00,,,0.00,meteohub,2013-03-19 13:59:00,
2013-03-19 09:04:00,11.7,-2.6,29.82,West,270,21.0,22.0,52,0.00,,,0.00,meteohub,2013-03-19 14:04:00,
2013-03-19 09:09:00,12.2,-2.6,29.83,West,270,19.0,22.0,51,0.00,,,0.00,meteohub,2013-03-19 14:09:00,
2013-03-19 09:14:00,12.4,-1.8,29.83,West,270,12.0,21.0,52,0.00,,,0.00,meteohub,2013-03-19 14:14:00,
2013-03-19 09:19:00,12.7,-2.0,29.83,NW,315,21.0,22.0,51,0.00,,,0.00,meteohub,2013-03-19 14:19:00,
2013-03-19 09:24:00,12.7,-2.4,29.83,West,270,20.0,22.0,50,0.00,,,0.00,meteohub,2013-03-19 14:24:00,
2013-03-19 09:29:00,13.3,-2.4,29.83,West,270,18.0,22.0,49,0.00,,,0.00,meteohub,2013-03-19 14:29:00,
2013-03-19 09:34:00,13.5,-2.2,29.84,West,270,15.0,23.0,49,0.00,,,0.00,meteohub,2013-03-19 14:34:00,
2013-03-19 09:39:00,14.0,-2.9,29.84,WNW,293,20.0,23.0,46,0.00,,,0.00,meteohub,2013-03-19 14:39:00,
2013-03-19 09:45:00,14.0,-2.9,29.84,West,270,17.0,23.0,46,0.00,,,0.00,meteohub,2013-03-19 14:45:00,
2013-03-19 09:50:00,14.2,-3.3,29.84,NW,315,21.0,23.0,45,0.00,,,0.00,meteohub,2013-03-19 14:50:00,
2013-03-19 09:55:00,14.7,-2.4,29.84,West,270,17.0,23.0,46,0.00,,,0.00,meteohub,2013-03-19 14:55:00,
2013-03-19 10:00:00,15.1,-2.0,29.85,West,270,20.0,21.0,46,0.00,,,0.00,meteohub,2013-03-19 15:00:00,
2013-03-19 10:05:00,15.1,-2.9,29.85,West,270,20.0,21.0,44,0.00,,,0.00,meteohub,2013-03-19 15:05:00,
2013-03-19 10:11:00,15.3,-2.7,29.85,NW,315,17.0,21.0,44,0.00,,,0.00,meteohub,2013-03-19 15:11:00,
2013-03-19 10:16:00,15.4,-1.1,29.86,North,0,17.0,21.0,47,0.00,,,0.00,meteohub,2013-03-19 15:16:00,
2013-03-19 10:21:00,15.8,-0.9,29.85,SW,225,18.0,21.0,47,0.00,,,0.00,meteohub,2013-03-19 15:21:00,
2013-03-19 10:27:00,16.5,-0.6,29.86,NW,315,13.0,19.0,46,0.00,,,0.00,meteohub,2013-03-19 15:27:00,
2013-03-19 10:32:00,17.1,-0.6,29.86,NW,315,13.0,23.0,45,0.00,,,0.00,meteohub,2013-03-19 15:32:00,
2013-03-19 10:37:00,17.1,-0.6,29.87,West,270,15.0,23.0,45,0.00,,,0.00,meteohub,2013-03-19 15:37:00,
2013-03-19 10:42:00,17.4,-0.8,29.87,NW,315,19.0,22.0,44,0.00,,,0.00,meteohub,2013-03-19 15:42:00,
2013-03-19 10:48:00,17.4,-0.8,29.87,West,270,21.0,24.0,44,0.00,,,0.00,meteohub,2013-03-19 15:48:00,
2013-03-19 10:53:00,18.1,-0.6,29.88,West,270,17.0,24.0,43,0.00,,,0.00,meteohub,2013-03-19 15:53:00,
2013-03-19 10:58:00,17.8,-0.9,29.88,West,270,23.0,24.0,43,0.00,,,0.00,meteohub,2013-03-19 15:58:00,
2013-03-19 11:03:00,18.1,-0.6,29.87,NW,315,20.0,24.0,43,0.00,,,0.00,meteohub,2013-03-19 16:03:00,
2013-03-19 11:09:00,18.1,-1.7,29.88,West,270,22.0,24.0,41,0.00,,,0.00,meteohub,2013-03-19 16:09:00,
2013-03-19 11:14:00,18.9,-0.4,29.88,West,270,20.0,24.0,42,0.00,,,0.00,meteohub,2013-03-19 16:14:00,
2013-03-19 11:19:00,19.0,-0.8,29.88,West,270,18.0,26.0,41,0.00,,,0.00,meteohub,2013-03-19 16:19:00,
2013-03-19 11:24:00,19.6,-0.2,29.88,NW,315,17.0,26.0,41,0.00,,,0.00,meteohub,2013-03-19 16:24:00,
2013-03-19 11:30:00,20.1,-0.4,29.89,SE,135,14.0,23.0,40,0.00,,,0.00,meteohub,2013-03-19 16:30:00,
2013-03-19 11:35:00,21.0,0.5,29.88,NW,315,17.0,20.0,40,0.00,,,0.00,meteohub,2013-03-19 16:35:00,
2013-03-19 11:40:00,21.7,-0.6,29.89,NW,315,15.0,21.0,37,0.00,,,0.00,meteohub,2013-03-19 16:40:00,
2013-03-19 11:45:00,22.1,-1.3,29.89,North,0,17.0,21.0,35,0.00,,,0.00,meteohub,2013-03-19 16:45:00,
2013-03-19 11:51:00,22.5,-1.7,29.88,NW,315,27.0,27.0,34,0.00,,,0.00,meteohub,2013-03-19 16:51:00,
2013-03-19 11:57:00,22.1,-0.8,29.89,NW,315,23.0,27.0,36,0.00,,,0.00,meteohub,2013-03-19 16:57:00,
2013-03-19 12:02:00,21.6,0.0,29.89,NE,45,34.0,34.0,38,0.00,,,0.00,meteohub,2013-03-19 17:02:00,
2013-03-19 12:07:00,21.7,-1.1,29.89,NW,315,23.0,34.0,36,0.00,,,0.00,meteohub,2013-03-19 17:07:00,
2013-03-19 12:12:00,22.3,0.5,29.90,West,270,16.0,34.0,38,0.00,,,0.00,meteohub,2013-03-19 17:12:00,
2013-03-19 12:17:00,22.5,0.1,29.89,NW,315,20.0,34.0,37,0.00,,,0.00,meteohub,2013-03-19 17:17:00,
2013-03-19 12:22:00,22.6,-1.5,29.89,NW,315,21.0,25.0,34,0.00,,,0.00,meteohub,2013-03-19 17:22:00,
2013-03-19 12:27:00,22.6,-0.9,29.90,NW,315,18.0,25.0,35,0.00,,,0.00,meteohub,2013-03-19 17:27:00,
2013-03-19 12:32:00,22.5,-1.1,29.90,NW,315,24.0,27.0,35,0.00,,,0.00,meteohub,2013-03-19 17:32:00,
2013-03-19 12:37:00,22.5,-1.1,29.91,NW,315,26.0,27.0,35,0.00,,,0.00,meteohub,2013-03-19 17:37:00,
2013-03-19 12:42:00,23.0,-0.6,29.91,NW,315,17.0,28.0,35,0.00,,,0.00,meteohub,2013-03-19 17:42:00,
2013-03-19 12:47:00,23.4,-0.9,29.90,NW,315,21.0,28.0,34,0.00,,,0.00,meteohub,2013-03-19 17:47:00,
2013-03-19 12:52:00,23.7,-0.6,29.91,NW,315,17.0,28.0,34,0.00,,,0.00,meteohub,2013-03-19 17:52:00,
2013-03-19 12:57:00,23.9,-0.4,29.91,West,270,16.0,24.0,34,0.00,,,0.00,meteohub,2013-03-19 17:57:00,
2013-03-19 13:03:00,24.1,-0.2,29.91,NW,315,21.0,23.0,34,0.00,,,0.00,meteohub,2013-03-19 18:03:00,
2013-03-19 13:08:00,24.3,-0.8,29.92,West,270,21.0,23.0,33,0.00,,,0.00,meteohub,2013-03-19 18:08:00,
2013-03-19 13:14:00,25.0,-1.5,29.91,West,270,21.0,23.0,31,0.00,,,0.00,meteohub,2013-03-19 18:14:00,
2013-03-19 13:19:00,25.0,0.0,29.92,NW,315,15.0,23.0,33,0.00,,,0.00,meteohub,2013-03-19 18:19:00,
2013-03-19 13:24:00,25.0,0.0,29.92,WNW,293,18.0,22.0,33,0.00,,,0.00,meteohub,2013-03-19 18:24:00,
2013-03-19 13:29:00,25.2,0.1,29.92,West,270,18.0,24.0,33,0.00,,,0.00,meteohub,2013-03-19 18:29:00,
2013-03-19 13:35:00,25.5,-1.7,29.92,NW,315,17.0,24.0,30,0.00,,,0.00,meteohub,2013-03-19 18:35:00,
2013-03-19 13:40:00,25.9,-0.6,29.92,West,270,16.0,23.0,31,0.00,,,0.00,meteohub,2013-03-19 18:40:00,
2013-03-19 13:45:00,25.5,0.3,29.91,West,270,20.0,23.0,33,0.00,,,0.00,meteohub,2013-03-19 18:45:00,
2013-03-19 13:51:00,25.5,0.3,29.91,NW,315,17.0,23.0,33,0.00,,,0.00,meteohub,2013-03-19 18:51:00,
2013-03-19 13:56:00,25.7,-0.8,29.91,West,270,18.0,23.0,31,0.00,,,0.00,meteohub,2013-03-19 18:56:00,
2013-03-19 14:01:00,25.7,-0.8,29.91,NW,315,20.0,25.0,31,0.00,,,0.00,meteohub,2013-03-19 19:01:00,
2013-03-19 14:06:00,26.1,-1.1,29.92,NW,315,17.0,25.0,30,0.00,,,0.00,meteohub,2013-03-19 19:06:00,
2013-03-19 14:11:00,26.4,-0.8,29.92,West,270,19.0,25.0,30,0.00,,,0.00,meteohub,2013-03-19 19:11:00,
2013-03-19 14:16:00,26.4,-0.8,29.92,NW,315,22.0,22.0,30,0.00,,,0.00,meteohub,2013-03-19 19:16:00,
2013-03-19 14:22:00,26.8,-2.0,29.92,West,270,17.0,22.0,28,0.00,,,0.00,meteohub,2013-03-19 19:22:00,
2013-03-19 14:27:00,27.3,-0.8,29.92,West,270,14.0,22.0,29,0.00,,,0.00,meteohub,2013-03-19 19:27:00,
2013-03-19 14:32:00,27.5,-0.6,29.92,WNW,293,21.0,22.0,29,0.00,,,0.00,meteohub,2013-03-19 19:32:00,
2013-03-19 14:37:00,27.5,-0.6,29.92,SW,225,19.0,21.0,29,0.00,,,0.00,meteohub,2013-03-19 19:37:00,
2013-03-19 14:42:00,27.5,-0.6,29.92,West,270,18.0,21.0,29,0.00,,,0.00,meteohub,2013-03-19 19:42:00,
2013-03-19 14:47:00,27.7,0.3,29.92,West,270,22.0,22.0,30,0.00,,,0.00,meteohub,2013-03-19 19:47:00,
2013-03-19 14:53:00,27.1,0.5,29.92,West,270,16.0,22.0,31,0.00,,,0.00,meteohub,2013-03-19 19:53:00,
2013-03-19 14:58:00,26.8,0.1,29.92,West,270,14.0,25.0,31,0.00,,,0.00,meteohub,2013-03-19 19:58:00,
2013-03-19 15:03:00,27.3,0.7,29.93,NW,315,16.0,25.0,31,0.00,,,0.00,meteohub,2013-03-19 20:03:00,
2013-03-19 15:09:00,27.1,-1.7,29.92,NW,315,23.0,23.0,28,0.00,,,0.00,meteohub,2013-03-19 20:09:00,
2013-03-19 15:14:00,27.0,-1.8,29.92,West,270,22.0,23.0,28,0.00,,,0.00,meteohub,2013-03-19 20:14:00,
2013-03-19 15:19:00,27.0,-0.4,29.93,WSW,248,21.0,23.0,30,0.00,,,0.00,meteohub,2013-03-19 20:19:00,
2013-03-19 15:24:00,27.3,-0.8,29.93,West,270,20.0,23.0,29,0.00,,,0.00,meteohub,2013-03-19 20:24:00,
2013-03-19 15:30:00,27.7,-1.1,29.93,West,270,20.0,21.0,28,0.00,,,0.00,meteohub,2013-03-19 20:30:00,
2013-03-19 15:35:00,27.7,-0.4,29.93,West,270,21.0,23.0,29,0.00,,,0.00,meteohub,2013-03-19 20:35:00,
2013-03-19 15:40:00,27.7,-2.0,29.93,West,270,18.0,23.0,27,0.00,,,0.00,meteohub,2013-03-19 20:40:00,
2013-03-19 15:46:00,27.7,-1.1,29.93,NW,315,17.0,23.0,28,0.00,,,0.00,meteohub,2013-03-19 20:46:00,
2013-03-19 15:52:00,27.9,-0.2,29.94,West,270,17.0,24.0,29,0.00,,,0.00,meteohub,2013-03-19 20:52:00,
2013-03-19 15:57:00,28.2,-1.5,29.94,West,270,20.0,24.0,27,0.00,,,0.00,meteohub,2013-03-19 20:57:00,
2013-03-19 16:02:00,28.2,0.0,29.94,WNW,293,17.0,23.0,29,0.00,,,0.00,meteohub,2013-03-19 21:02:00,
2013-03-19 16:07:00,27.7,0.3,29.94,West,270,18.0,21.0,30,0.00,,,0.00,meteohub,2013-03-19 21:07:00,
2013-03-19 16:12:00,27.3,0.7,29.94,West,270,20.0,24.0,31,0.00,,,0.00,meteohub,2013-03-19 21:12:00,
2013-03-19 16:17:00,27.0,1.8,29.95,West,270,21.0,24.0,33,0.00,,,0.00,meteohub,2013-03-19 21:17:00,
2013-03-19 16:23:00,27.0,1.0,29.95,WNW,293,17.0,24.0,32,0.00,,,0.00,meteohub,2013-03-19 21:23:00,
2013-03-19 16:28:00,27.0,1.8,29.95,WSW,248,18.0,25.0,33,0.00,,,0.00,meteohub,2013-03-19 21:28:00,
2013-03-19 16:33:00,27.0,1.0,29.95,West,270,20.0,25.0,32,0.00,,,0.00,meteohub,2013-03-19 21:33:00,
2013-03-19 16:38:00,27.1,0.5,29.95,West,270,21.0,25.0,31,0.00,,,0.00,meteohub,2013-03-19 21:38:00,
2013-03-19 16:43:00,27.1,1.8,29.96,NW,315,21.0,23.0,33,0.00,,,0.00,meteohub,2013-03-19 21:43:00,
2013-03-19 16:49:00,26.6,2.7,29.96,WNW,293,14.0,23.0,35,0.00,,,0.00,meteohub,2013-03-19 21:49:00,
2013-03-19 16:54:00,26.2,2.8,29.96,West,270,14.0,23.0,36,0.00,,,0.00,meteohub,2013-03-19 21:54:00,
2013-03-19 16:59:00,26.1,2.8,29.96,NW,315,18.0,21.0,36,0.00,,,0.00,meteohub,2013-03-19 21:59:00,
2013-03-19 17:04:00,26.1,2.1,29.97,West,270,18.0,21.0,35,0.00,,,0.00,meteohub,2013-03-19 22:04:00,
2013-03-19 17:09:00,26.2,2.8,29.97,West,270,11.0,21.0,36,0.00,,,0.00,meteohub,2013-03-19 22:09:00,
2013-03-19 17:14:00,26.2,2.3,29.97,West,270,20.0,21.0,35,0.00,,,0.00,meteohub,2013-03-19 22:14:00,
2013-03-19 17:20:00,25.9,2.7,29.97,West,270,15.0,21.0,36,0.00,,,0.00,meteohub,2013-03-19 22:20:00,
2013-03-19 17:25:00,25.5,2.8,29.97,West,270,11.0,21.0,37,0.00,,,0.00,meteohub,2013-03-19 22:25:00,
2013-03-19 17:30:00,25.0,1.8,29.97,WSW,248,15.0,21.0,36,0.00,,,0.00,meteohub,2013-03-19 22:30:00,
2013-03-19 17:35:00,25.2,2.5,29.98,North,0,15.0,21.0,37,0.00,,,0.00,meteohub,2013-03-19 22:35:00,
2013-03-19 17:40:00,25.2,2.5,29.97,West,270,13.0,21.0,37,0.00,,,0.00,meteohub,2013-03-19 22:40:00,
2013-03-19 17:46:00,25.0,2.3,29.97,West,270,19.0,19.0,37,0.00,,,0.00,meteohub,2013-03-19 22:46:00,
2013-03-19 17:52:00,24.4,1.9,29.97,NW,315,14.0,19.0,37,0.00,,,0.00,meteohub,2013-03-19 22:52:00,
2013-03-19 17:57:00,23.9,1.9,29.98,NW,315,17.0,19.0,38,0.00,,,0.00,meteohub,2013-03-19 22:57:00,
2013-03-19 18:02:00,24.1,1.6,29.97,SW,225,18.0,20.0,37,0.00,,,0.00,meteohub,2013-03-19 23:02:00,
2013-03-19 18:07:00,24.3,1.2,29.98,SW,225,18.0,20.0,36,0.00,,,0.00,meteohub,2013-03-19 23:07:00,
2013-03-19 18:12:00,24.3,1.8,29.98,WSW,248,15.0,20.0,37,0.00,,,0.00,meteohub,2013-03-19 23:12:00,
2013-03-19 18:17:00,24.3,1.8,29.98,WSW,248,15.0,19.0,37,0.00,,,0.00,meteohub,2013-03-19 23:17:00,
2013-03-19 18:22:00,23.7,1.2,29.98,NW,315,17.0,19.0,37,0.00,,,0.00,meteohub,2013-03-19 23:22:00,
2013-03-19 18:27:00,23.5,1.0,29.99,SW,225,18.0,23.0,37,0.00,,,0.00,meteohub,2013-03-19 23:27:00,
2013-03-19 18:32:00,23.4,0.9,29.99,West,270,15.0,23.0,37,0.00,,,0.00,meteohub,2013-03-19 23:32:00,
2013-03-19 18:37:00,23.4,1.6,29.99,WSW,248,15.0,18.0,38,0.00,,,0.00,meteohub,2013-03-19 23:37:00,
2013-03-19 18:42:00,23.2,0.7,29.99,NW,315,14.0,18.0,37,0.00,,,0.00,meteohub,2013-03-19 23:42:00,
2013-03-19 18:47:00,23.0,1.2,29.99,West,270,14.0,16.0,38,0.00,,,0.00,meteohub,2013-03-19 23:47:00,
2013-03-19 18:52:00,22.6,0.9,29.99,West,270,13.0,17.0,38,0.00,,,0.00,meteohub,2013-03-19 23:52:00,
2013-03-19 18:57:00,22.5,0.7,30.00,West,270,12.0,17.0,38,0.00,,,0.00,meteohub,2013-03-19 23:57:00,
2013-03-19 19:03:00,22.1,0.9,30.00,SW,225,13.0,17.0,39,0.00,,,0.00,meteohub,2013-03-20 00:03:00,
2013-03-19 19:08:00,21.7,0.5,30.00,West,270,12.0,17.0,39,0.00,,,0.00,meteohub,2013-03-20 00:08:00,
2013-03-19 19:13:00,21.4,0.3,30.00,NW,315,13.0,17.0,39,0.00,,,0.00,meteohub,2013-03-20 00:13:00,
2013-03-19 19:19:00,21.4,0.3,30.00,West,270,10.0,15.0,39,0.00,,,0.00,meteohub,2013-03-20 00:19:00,
2013-03-19 19:24:00,21.4,0.3,30.00,West,270,10.0,14.0,39,0.00,,,0.00,meteohub,2013-03-20 00:24:00,
2013-03-19 19:29:00,21.6,-1.3,30.01,West,270,14.0,14.0,36,0.00,,,0.00,meteohub,2013-03-20 00:29:00,
2013-03-19 19:34:00,21.6,-1.3,30.01,West,270,14.0,14.0,36,0.00,,,0.00,meteohub,2013-03-20 00:34:00,
2013-03-19 19:39:00,21.6,-1.8,30.01,West,270,17.0,17.0,35,0.00,,,0.00,meteohub,2013-03-20 00:39:00,
2013-03-19 19:45:00,21.2,-1.7,30.01,West,270,14.0,17.0,36,0.00,,,0.00,meteohub,2013-03-20 00:45:00,
2013-03-19 19:50:00,21.0,-1.8,30.01,West,270,12.0,17.0,36,0.00,,,0.00,meteohub,2013-03-20 00:50:00,
2013-03-19 19:55:00,20.8,-2.6,30.01,West,270,16.0,99.0,35,0.00,,,0.00,meteohub,2013-03-20 00:55:00,
2013-03-19 20:00:00,20.8,-2.6,30.01,West,270,16.0,99.0,35,0.00,,,0.00,meteohub,2013-03-20 01:00:00,
2013-03-19 20:06:00,20.8,-1.8,30.01,West,270,8.0,16.0,36,0.00,,,0.00,meteohub,2013-03-20 01:06:00,
2013-03-19 20:11:00,20.5,-1.1,30.01,West,270,11.0,16.0,38,0.00,,,0.00,meteohub,2013-03-20 01:11:00,
2013-03-19 20:17:00,20.5,-1.1,30.01,West,270,11.0,16.0,38,0.00,,,0.00,meteohub,2013-03-20 01:17:00,
2013-03-19 20:22:00,20.5,-1.1,30.01,West,270,11.0,11.0,38,0.00,,,0.00,meteohub,2013-03-20 01:22:00,
2013-03-19 21:59:00,18.0,-5.6,30.01,West,270,1.0,-999.0,34,-99.99,,,0.00,meteohub,2013-03-20 02:59:00,
2013-03-19 22:05:00,18.0,-5.6,30.01,West,270,1.0,-999.0,34,-99.99,,,0.00,meteohub,2013-03-20 03:05:00,
2013-03-19 22:10:00,18.0,-5.6,30.01,West,270,1.0,1.0,34,0.00,,,0.00,meteohub,2013-03-20 03:10:00,
2013-03-19 22:26:00,17.2,-1.5,30.01,West,270,12.0,-999.0,43,0.00,,,0.00,meteohub,2013-03-20 03:26:00,
2013-03-19 22:31:00,17.2,-1.5,30.01,NW,315,15.0,15.0,43,0.00,,,0.00,meteohub,2013-03-20 03:31:00,
2013-03-19 22:36:00,17.2,-1.5,30.01,NW,315,15.0,15.0,43,0.38,,,0.38,meteohub,2013-03-20 03:36:00,
2013-03-19 22:45:00,17.2,-2.4,30.01,NW,315,17.0,17.0,41,0.38,,,0.38,meteohub,2013-03-20 03:45:00,
2013-03-19 22:50:00,17.1,-2.6,30.01,West,270,16.0,17.0,41,0.38,,,0.38,meteohub,2013-03-20 03:50:00,
2013-03-19 22:55:00,17.2,-2.9,30.02,NW,315,14.0,17.0,40,0.38,,,0.38,meteohub,2013-03-20 03:55:00,
2013-03-19 23:00:00,17.2,-2.9,30.02,West,270,10.0,17.0,40,0.38,,,0.38,meteohub,2013-03-20 04:00:00,
2013-03-19 23:02:00,17.2,-2.9,30.02,West,270,10.0,17.0,40,0.38,,,0.38,meteohub,2013-03-20 04:02:00,
2013-03-19 23:07:00,17.1,-2.6,30.02,NW,315,11.0,16.0,41,0.38,,,0.38,meteohub,2013-03-20 04:07:00,
2013-03-19 23:11:00,17.1,-2.6,30.01,NW,315,11.0,14.0,41,0.38,,,0.38,meteohub,2013-03-20 04:11:00,
2013-03-19 23:16:00,17.1,-2.6,30.01,NW,315,11.0,11.0,41,0.38,,,0.38,meteohub,2013-03-20 04:16:00,
2013-03-19 23:23:00,16.5,-3.6,30.02,West,270,12.0,12.0,40,0.38,,,0.38,meteohub,2013-03-20 04:23:00,
2013-03-19 23:28:00,16.5,-3.6,30.02,West,270,9.0,12.0,40,0.38,,,0.38,meteohub,2013-03-20 04:28:00,
2013-03-19 23:33:00,16.5,-3.6,30.01,West,270,9.0,12.0,40,0.00,,,0.38,meteohub,2013-03-20 04:33:00,
2013-03-19 23:38:00,16.5,-3.6,30.02,West,270,9.0,12.0,40,0.00,,,0.38,meteohub,2013-03-20 04:38:00,
2013-03-19 23:58:00,15.4,-4.0,30.01,West,270,18.0,-999.0,41,0.00,,,0.38,meteohub,2013-03-20 04:58:00,